Time,TemperatureF,DewpointF,PressureIn,WindDirection,WindDirectionDegrees,WindSpeedMPH,WindSpeedGustMPH,Humidity,HourlyPrecipIn,Conditions,Clouds,dailyrainin,SolarRadiationWatts/m^2,SoftwareType,DateUTC
2013-09-14 00:00:00,40.5,38.9,30.14,NNE,23,0.0,0.0,94,0.00,CLR,,0.00,0.0,WeatherDisplay:10.37,2013-09-14 04:00:00,
2013-09-14 00:01:00,40.5,38.9,30.14,NNE,23,0.0,0.0,94,0.00,CLR,,0.00,0.0,WeatherDisplay:10.37,2013-09-14 04:01:00,
2013-09-14 00:02:00,40.5,38.9,30.14,NNE,23,0.0,0.0,94,0.00,CLR,,0.00,0.0,WeatherDisplay:10.37,2013-09-14 04:02:00,
2013-09-14 00:07:00,40.7,39.4,30.14,NNE,23,0.0,0.0,95,0.00,CLR,,0.00,0.0,WeatherDisplay:10.37,2013-09-14 04:07:00,
2013-09-14 00:12:00,40.7,39.1,30.14,NNE,23,0.0,0.0,94,0.00,CLR,,0.00,0.0,WeatherDisplay:10.37,2013-09-14 04:12:00,
2013-09-14 00:17:00,40.5,38.9,30.14,NNE,23,0.0,0.0,94,0.00,CLR,,0.00,0.0,WeatherDisplay:10.37,2013-09-14 04:17:00,
2013-09-14 00:22:00,40.4,38.8,30.14,NNE,23,0.0,0.0,94,0.00,CLR,,0.00,0.0,WeatherDisplay:10.37,2013-09-14 04:22:00,
2013-09-14 00:27:00,40.2,38.6,30.14,NNE,23,0.0,0.0,94,0.00,CLR,,0.00,0.0,WeatherDisplay:10.37,2013-09-14 04:27:00,
2013-09-14 00:32:00,40.1,38.5,30.14,NNE,23,0.0,0.0,94,0.00,CLR,,0.00,0.0,WeatherDisplay:10.37,2013-09-14 04:32:00,
2013-09-14 00:37:00,39.9,38.3,30.14,NNE,23,0.0,0.0,94,0.00,CLR,,0.00,0.0,WeatherDisplay:10.37,2013-09-14 04:37:00,
2013-09-14 00:42:00,39.8,38.2,30.14,NNE,23,0.0,0.0,94,0.00,CLR,,0.00,0.0,WeatherDisplay:10.37,2013-09-14 04:42:00,
2013-09-14 00:47:00,40.1,38.8,30.14,NNE,23,0.0,0.0,95,0.00,CLR,,0.00,0.0,WeatherDisplay:10.37,2013-09-14 04:47:00,
2013-09-14 00:52:00,40.3,39.0,30.14,NNE,23,0.0,0.0,95,0.00,CLR,,0.00,0.0,WeatherDisplay:10.37,2013-09-14 04:52:00,
2013-09-14 00:57:00,40.4,39.1,30.14,NNE,23,0.0,0.0,95,0.00,CLR,,0.00,0.0,WeatherDisplay:10.37,2013-09-14 04:57:00,
2013-09-14 01:02:00,40.3,39.0,30.14,NNE,23,0.0,0.0,95,0.00,CLR,,0.00,0.0,WeatherDisplay:10.37,2013-09-14 05:02:00,
2013-09-14 01:07:00,40.1,38.8,30.14,NNE,23,0.0,0.0,95,0.00,CLR,,0.00,0.0,WeatherDisplay:10.37,2013-09-14 05:07:00,
2013-09-14 01:12:00,40.0,38.7,30.14,NNE,23,0.0,0.0,95,0.00,CLR,,0.00,0.0,WeatherDisplay:10.37,2013-09-14 05:12:00,
2013-09-14 01:17:00,39.8,38.5,30.14,NNE,23,0.0,0.0,95,0.00,CLR,,0.00,0.0,WeatherDisplay:10.37,2013-09-14 05:17:00,
2013-09-14 01:22:00,39.7,38.4,30.14,NNE,23,0.0,0.0,95,0.00,CLR,,0.00,0.0,WeatherDisplay:10.37,2013-09-14 05:22:00,
2013-09-14 01:27:00,39.6,38.3,30.14,NNE,23,0.0,0.0,95,0.00,CLR,,0.00,0.0,WeatherDisplay:10.37,2013-09-14 05:27:00,
2013-09-14 01:32:00,39.5,38.2,30.14,NNE,23,0.0,0.0,95,0.00,CLR,,0.00,0.0,WeatherDisplay:10.37,2013-09-14 05:32:00,
2013-09-14 01:37:00,39.3,38.0,30.14,NNE,23,0.0,0.0,95,0.00,CLR,,0.00,0.0,WeatherDisplay:10.37,2013-09-14 05:37:00,
2013-09-14 01:42:00,39.2,37.9,30.14,NNE,23,0.0,0.0,95,0.00,CLR,,0.00,0.0,WeatherDisplay:10.37,2013-09-14 05:42:00,
2013-09-14 01:47:00,39.2,37.9,30.14,NNE,23,0.0,0.0,95,0.00,CLR,,0.00,0.0,WeatherDisplay:10.37,2013-09-14 05:47:00,
2013-09-14 01:52:00,39.1,37.8,30.14,NNE,23,0.0,0.0,95,0.00,CLR,,0.00,0.0,WeatherDisplay:10.37,2013-09-14 05:52:00,
2013-09-14 01:57:00,39.0,37.7,30.14,NNE,23,0.0,0.0,95,0.00,CLR,,0.00,0.0,WeatherDisplay:10.37,2013-09-14 05:57:00,
2013-09-14 02:02:00,38.8,37.5,30.14,NNE,23,0.0,0.0,95,0.00,CLR,,0.00,0.0,WeatherDisplay:10.37,2013-09-14 06:02:00,
2013-09-14 02:07:00,38.6,37.3,30.14,NNE,23,0.0,0.0,95,0.00,CLR,,0.00,0.0,WeatherDisplay:10.37,2013-09-14 06:07:00,
2013-09-14 02:12:00,38.5,37.2,30.14,NNE,23,0.0,0.0,95,0.00,CLR,,0.00,0.0,WeatherDisplay:10.37,2013-09-14 06:12:00,
2013-09-14 02:17:00,38.3,37.0,30.14,NNE,23,0.0,0.0,95,0.00,CLR,,0.00,0.0,WeatherDisplay:10.37,2013-09-14 06:17:00,
2013-09-14 02:22:00,38.2,36.9,30.14,NNE,23,0.0,0.0,95,0.00,CLR,,0.00,0.0,WeatherDisplay:10.37,2013-09-14 06:22:00,
2013-09-14 02:27:00,38.0,36.7,30.14,NNE,23,0.0,0.0,95,0.00,CLR,,0.00,0.0,WeatherDisplay:10.37,2013-09-14 06:27:00,
2013-09-14 02:32:00,37.9,36.6,30.14,NNE,23,0.0,0.0,95,0.00,CLR,,0.00,0.0,WeatherDisplay:10.37,2013-09-14 06:32:00,
2013-09-14 02:37:00,37.8,36.5,30.14,NNE,23,0.0,0.0,95,0.00,CLR,,0.00,0.0,WeatherDisplay:10.37,2013-09-14 06:37:00,
2013-09-14 02:42:00,37.9,36.6,30.14,NNE,23,0.0,0.0,95,0.00,CLR,,0.00,0.0,WeatherDisplay:10.37,2013-09-14 06:42:00,
2013-09-14 02:47:00,38.1,36.8,30.14,NNE,23,0.0,0.0,95,0.00,CLR,,0.00,0.0,WeatherDisplay:10.37,2013-09-14 06:47:00,
2013-09-14 02:52:00,38.2,37.2,30.14,NNE,23,0.0,0.0,96,0.00,CLR,,0.00,0.0,WeatherDisplay:10.37,2013-09-14 06:52:00,
2013-09-14 02:57:00,38.2,37.2,30.14,NNE,23,0.0,0.0,96,0.00,CLR,,0.00,0.0,WeatherDisplay:10.37,2013-09-14 06:57:00,
2013-09-14 03:02:00,38.2,37.2,30.14,NNE,23,0.0,0.0,96,0.00,CLR,,0.00,0.0,WeatherDisplay:10.37,2013-09-14 07:02:00,
2013-09-14 03:07:00,38.3,37.3,30.14,NNE,23,0.0,0.0,96,0.00,CLR,,0.00,0.0,WeatherDisplay:10.37,2013-09-14 07:07:00,
2013-09-14 03:12:00,38.2,37.2,30.14,NNE,23,0.0,0.0,96,0.00,CLR,,0.00,0.0,WeatherDisplay:10.37,2013-09-14 07:12:00,
2013-09-14 03:17:00,38.1,36.8,30.14,NNE,23,0.0,0.0,95,0.00,CLR,,0.00,0.0,WeatherDisplay:10.37,2013-09-14 07:17:00,
2013-09-14 03:22:00,38.1,36.8,30.14,NNE,23,0.0,0.0,95,0.00,CLR,,0.00,0.0,WeatherDisplay:10.37,2013-09-14 07:22:00,
2013-09-14 03:27:00,38.0,36.7,30.15,NNE,23,0.0,0.0,95,0.00,CLR,,0.00,0.0,WeatherDisplay:10.37,2013-09-14 07:27:00,
2013-09-14 03:32:00,37.9,36.6,30.15,NNE,23,0.0,0.0,95,0.00,CLR,,0.00,0.0,WeatherDisplay:10.37,2013-09-14 07:32:00,
2013-09-14 03:37:00,37.7,36.4,30.15,NNE,23,0.0,0.0,95,0.00,CLR,,0.00,0.0,WeatherDisplay:10.37,2013-09-14 07:37:00,
2013-09-14 03:42:00,37.5,36.2,30.15,NNE,23,0.0,0.0,95,0.00,CLR,,0.00,0.0,WeatherDisplay:10.37,2013-09-14 07:42:00,
2013-09-14 03:47:00,37.3,36.0,30.15,NNE,23,0.0,0.0,95,0.00,CLR,,0.00,0.0,WeatherDisplay:10.37,2013-09-14 07:47:00,
2013-09-14 03:52:00,37.2,35.9,30.15,NNE,23,0.0,0.0,95,0.00,CLR,,0.00,0.0,WeatherDisplay:10.37,2013-09-14 07:52:00,
2013-09-14 03:57:00,37.2,35.9,30.15,NNE,23,0.0,0.0,95,0.00,CLR,,0.00,0.0,WeatherDisplay:10.37,2013-09-14 07:57:00,
2013-09-14 04:02:00,37.4,36.4,30.15,NNE,23,0.0,0.0,96,0.00,CLR,,0.00,0.0,WeatherDisplay:10.37,2013-09-14 08:02:00,
2013-09-14 04:07:00,37.5,36.5,30.15,NNE,23,0.0,0.0,96,0.00,CLR,,0.00,0.0,WeatherDisplay:10.37,2013-09-14 08:07:00,
2013-09-14 04:12:00,37.5,36.5,30.15,NNE,23,0.0,0.0,96,0.00,CLR,,0.00,0.0,WeatherDisplay:10.37,2013-09-14 08:12:00,
2013-09-14 04:17:00,37.4,36.4,30.15,NNE,23,0.0,0.0,96,0.00,CLR,,0.00,0.0,WeatherDisplay:10.37,2013-09-14 08:17:00,
2013-09-14 04:22:00,37.4,36.4,30.15,NNE,23,0.0,0.0,96,0.00,CLR,,0.00,0.0,WeatherDisplay:10.37,2013-09-14 08:22:00,
2013-09-14 04:27:00,37.3,36.3,30.15,NNE,23,0.0,0.0,96,0.00,CLR,,0.00,0.0,WeatherDisplay:10.37,2013-09-14 08:27:00,
2013-09-14 04:32:00,37.3,36.3,30.15,NNE,23,0.0,0.0,96,0.00,CLR,,0.00,0.0,WeatherDisplay:10.37,2013-09-14 08:32:00,
2013-09-14 04:37:00,37.2,36.2,30.15,NNE,23,0.0,0.0,96,0.00,CLR,,0.00,0.0,WeatherDisplay:10.37,2013-09-14 08:37:00,
2013-09-14 04:42:00,37.2,36.2,30.15,NNE,23,0.0,0.0,96,0.00,CLR,,0.00,0.0,WeatherDisplay:10.37,2013-09-14 08:42:00,
2013-09-14 04:47:00,37.1,36.1,30.15,NNE,23,0.0,0.0,96,0.00,CLR,,0.00,0.0,WeatherDisplay:10.37,2013-09-14 08:47:00,
2013-09-14 04:52:00,37.0,36.0,30.16,NNE,23,0.0,0.0,96,0.00,CLR,,0.00,0.0,WeatherDisplay:10.37,2013-09-14 08:52:00,
2013-09-14 04:57:00,37.1,36.1,30.15,NNE,23,0.0,0.0,96,0.00,CLR,,0.00,0.0,WeatherDisplay:10.37,2013-09-14 08:57:00,
2013-09-14 05:02:00,37.3,36.3,30.15,NNE,23,0.0,0.0,96,0.00,CLR,,0.00,0.0,WeatherDisplay:10.37,2013-09-14 09:02:00,
2013-09-14 05:07:00,37.3,36.3,30.15,NNE,23,0.0,0.0,96,0.00,CLR,,0.00,0.0,WeatherDisplay:10.37,2013-09-14 09:07:00,
2013-09-14 05:12:00,37.3,36.3,30.15,NNE,23,0.0,0.0,96,0.00,CLR,,0.00,0.0,WeatherDisplay:10.37,2013-09-14 09:12:00,
2013-09-14 05:17:00,37.2,36.2,30.15,NNE,23,0.0,0.0,96,0.00,CLR,,0.00,0.0,WeatherDisplay:10.37,2013-09-14 09:17:00,
2013-09-14 05:22:00,37.2,36.2,30.16,NNE,23,0.0,0.0,96,0.00,CLR,,0.00,0.0,WeatherDisplay:10.37,2013-09-14 09:22:00,
2013-09-14 05:27:00,37.2,36.2,30.16,NNE,23,0.0,0.0,96,0.00,CLR,,0.00,0.0,WeatherDisplay:10.37,2013-09-14 09:27:00,
2013-09-14 05:32:00,37.2,36.2,30.16,NNE,23,0.0,0.0,96,0.00,CLR,,0.00,0.0,WeatherDisplay:10.37,2013-09-14 09:32:00,
2013-09-14 05:37:00,37.3,36.3,30.15,NNE,23,0.0,0.0,96,0.00,CLR,,0.00,0.0,WeatherDisplay:10.37,2013-09-14 09:37:00,
2013-09-14 05:42:00,37.3,36.3,30.16,NNE,23,0.0,0.0,96,0.00,CLR,,0.00,0.0,WeatherDisplay:10.37,2013-09-14 09:42:00,
2013-09-14 05:47:00,37.4,36.4,30.16,NNE,23,0.0,0.0,96,0.00,CLR,,0.00,0.0,WeatherDisplay:10.37,2013-09-14 09:47:00,
2013-09-14 05:52:00,37.4,36.4,30.16,NNE,23,0.0,0.0,96,0.00,CLR,,0.00,0.0,WeatherDisplay:10.37,2013-09-14 09:52:00,
2013-09-14 05:57:00,37.4,36.4,30.16,NNE,23,0.0,0.0,96,0.00,CLR,,0.00,0.0,WeatherDisplay:10.37,2013-09-14 09:57:00,
2013-09-14 06:02:00,37.3,36.3,30.16,NNE,23,0.0,0.0,96,0.00,CLR,,0.00,0.0,WeatherDisplay:10.37,2013-09-14 10:02:00,
2013-09-14 06:07:00,37.3,36.3,30.16,NNE,23,0.0,0.0,96,0.00,CLR,,0.00,0.0,WeatherDisplay:10.37,2013-09-14 10:07:00,
2013-09-14 06:12:00,37.2,36.2,30.16,NNE,23,0.0,0.0,96,0.00,CLR,,0.00,0.0,WeatherDisplay:10.37,2013-09-14 10:12:00,
2013-09-14 06:17:00,37.1,36.1,30.17,NNE,23,0.0,0.0,96,0.00,CLR,,0.00,0.0,WeatherDisplay:10.37,2013-09-14 10:17:00,
2013-09-14 06:22:00,37.0,36.0,30.17,NNE,23,0.0,0.0,96,0.00,CLR,,0.00,0.0,WeatherDisplay:10.37,2013-09-14 10:22:00,
2013-09-14 06:27:00,36.8,35.8,30.16,NNE,23,0.0,0.0,96,0.00,CLR,,0.00,0.0,WeatherDisplay:10.37,2013-09-14 10:27:00,
2013-09-14 06:32:00,36.7,35.7,30.17,NNE,23,0.0,0.0,96,0.00,CLR,,0.00,0.0,WeatherDisplay:10.37,2013-09-14 10:32:00,
2013-09-14 06:37:00,36.7,35.7,30.17,NNE,23,0.0,0.0,96,0.00,CLR,,0.00,0.0,WeatherDisplay:10.37,2013-09-14 10:37:00,
2013-09-14 06:42:00,36.8,35.8,30.17,NNE,23,0.0,0.0,96,0.00,CLR,,0.00,0.0,WeatherDisplay:10.37,2013-09-14 10:42:00,
2013-09-14 06:47:00,36.8,35.8,30.17,NNE,23,0.0,0.0,96,0.00,CLR,,0.00,0.0,WeatherDisplay:10.37,2013-09-14 10:47:00,
2013-09-14 06:52:00,36.8,35.8,30.17,NNE,23,0.0,0.0,96,0.00,CLR,,0.00,0.0,WeatherDisplay:10.37,2013-09-14 10:52:00,
2013-09-14 06:57:00,37.0,36.0,30.17,NNE,23,0.0,0.0,96,0.00,CLR,,0.00,0.0,WeatherDisplay:10.37,2013-09-14 10:57:00,
2013-09-14 07:02:00,37.2,36.2,30.17,NNE,23,0.0,0.0,96,0.00,CLR,,0.00,0.0,WeatherDisplay:10.37,2013-09-14 11:02:00,
2013-09-14 07:07:00,37.3,36.3,30.17,NNE,23,0.0,0.0,96,0.00,CLR,,0.00,0.0,WeatherDisplay:10.37,2013-09-14 11:07:00,
2013-09-14 07:12:00,37.1,36.1,30.17,NNE,23,0.0,0.0,96,0.00,CLR,,0.00,0.0,WeatherDisplay:10.37,2013-09-14 11:12:00,
2013-09-14 07:17:00,37.1,36.1,30.17,NNE,23,0.0,0.0,96,0.00,CLR,,0.00,5.0,WeatherDisplay:10.37,2013-09-14 11:17:00,
2013-09-14 07:23:00,37.1,36.1,30.17,NNE,23,0.0,0.0,96,0.00,CLR,,0.00,7.0,WeatherDisplay:10.37,2013-09-14 11:23:00,
2013-09-14 07:28:00,37.2,36.2,30.18,NNE,23,0.0,0.0,96,0.00,CLR,,0.00,9.0,WeatherDisplay:10.37,2013-09-14 11:28:00,
2013-09-14 07:33:00,37.2,36.2,30.17,NNE,23,0.0,0.0,96,0.00,CLR,,0.00,11.0,WeatherDisplay:10.37,2013-09-14 11:33:00,
2013-09-14 07:38:00,37.3,36.3,30.17,NNE,23,0.0,0.0,96,0.00,CLR,,0.00,12.0,WeatherDisplay:10.37,2013-09-14 11:38:00,
2013-09-14 07:43:00,37.4,36.4,30.18,NNE,23,0.0,0.0,96,0.00,CLR,,0.00,16.0,WeatherDisplay:10.37,2013-09-14 11:43:00,
2013-09-14 07:48:00,37.7,36.9,30.18,NNE,23,0.0,0.0,97,0.00,CLR,,0.00,14.0,WeatherDisplay:10.37,2013-09-14 11:48:00,
2013-09-14 07:53:00,37.8,37.0,30.18,NNE,23,0.0,0.0,97,0.00,CLR,,0.00,18.0,WeatherDisplay:10.37,2013-09-14 11:53:00,
2013-09-14 07:58:00,38.0,37.2,30.18,NNE,23,0.0,0.0,97,0.00,CLR,,0.00,19.0,WeatherDisplay:10.37,2013-09-14 11:58:00,
2013-09-14 08:03:00,38.3,37.5,30.18,NNE,23,0.0,0.0,97,0.00,CLR,,0.00,21.0,WeatherDisplay:10.37,2013-09-14 12:03:00,
2013-09-14 08:08:00,38.5,37.7,30.18,NNE,23,0.0,0.0,97,0.00,CLR,,0.00,18.0,WeatherDisplay:10.37,2013-09-14 12:08:00,
2013-09-14 08:13:00,38.6,37.8,30.18,NNE,23,0.0,0.0,97,0.00,CLR,,0.00,23.0,WeatherDisplay:10.37,2013-09-14 12:13:00,
2013-09-14 08:18:00,38.9,38.1,30.18,NNE,23,0.0,0.0,97,0.00,CLR,,0.00,18.0,WeatherDisplay:10.37,2013-09-14 12:18:00,
2013-09-14 08:23:00,39.1,38.3,30.18,NNE,23,0.0,0.0,97,0.00,CLR,,0.00,19.0,WeatherDisplay:10.37,2013-09-14 12:23:00,
2013-09-14 08:28:00,39.5,38.7,30.18,NNE,23,0.0,0.0,97,0.00,CLR,,0.00,19.0,WeatherDisplay:10.37,2013-09-14 12:28:00,
2013-09-14 08:33:00,40.3,39.5,30.18,NNE,23,0.0,0.0,97,0.00,CLR,,0.00,19.0,WeatherDisplay:10.37,2013-09-14 12:33:00,
2013-09-14 08:38:00,41.3,40.5,30.18,NNE,23,0.0,0.0,97,0.00,CLR,,0.00,23.0,WeatherDisplay:10.37,2013-09-14 12:38:00,
2013-09-14 08:43:00,41.8,41.0,30.18,NNE,23,0.0,0.0,97,0.00,CLR,,0.00,21.0,WeatherDisplay:10.37,2013-09-14 12:43:00,
2013-09-14 08:48:00,42.4,41.6,30.18,NNE,23,0.0,0.0,97,0.00,CLR,,0.00,21.0,WeatherDisplay:10.37,2013-09-14 12:48:00,
2013-09-14 08:53:00,42.8,42.0,30.18,NNE,23,0.0,0.0,97,0.00,CLR,,0.00,26.0,WeatherDisplay:10.37,2013-09-14 12:53:00,
2013-09-14 08:58:00,43.3,42.5,30.19,NNE,23,1.0,0.0,97,0.00,CLR,,0.00,25.0,WeatherDisplay:10.37,2013-09-14 12:58:00,
2013-09-14 09:03:00,44.0,43.2,30.19,NNE,19,3.5,3.5,97,0.00,OVC,,0.00,28.0,WeatherDisplay:10.37,2013-09-14 13:03:00,
2013-09-14 09:08:00,44.7,43.9,30.19,NNE,19,3.5,3.5,97,0.00,OVC,,0.00,58.0,WeatherDisplay:10.37,2013-09-14 13:08:00,
2013-09-14 09:13:00,45.2,44.4,30.19,WNW,287,1.2,1.2,97,0.00,OVC,,0.00,28.0,WeatherDisplay:10.37,2013-09-14 13:13:00,
2013-09-14 09:18:00,45.8,45.3,30.19,WNW,287,1.2,1.2,98,0.00,OVC,,0.00,51.0,WeatherDisplay:10.37,2013-09-14 13:18:00,
2013-09-14 09:23:00,46.5,46.0,30.19,WNW,287,3.5,3.5,98,0.00,OVC,,0.00,39.0,WeatherDisplay:10.37,2013-09-14 13:23:00,
2013-09-14 09:28:00,47.2,46.4,30.19,WNW,296,3.5,3.5,97,0.00,OVC,,0.00,44.0,WeatherDisplay:10.37,2013-09-14 13:28:00,
2013-09-14 09:33:00,47.8,47.0,30.19,WNW,296,0.0,0.0,97,0.00,OVC,,0.00,42.0,WeatherDisplay:10.37,2013-09-14 13:33:00,
2013-09-14 09:38:00,48.7,47.9,30.19,WNW,295,2.3,0.0,97,0.00,OVC,,0.00,186.0,WeatherDisplay:10.37,2013-09-14 13:38:00,
2013-09-14 09:43:00,49.7,47.5,30.19,WNW,294,1.2,0.0,92,0.00,OVC,,0.00,336.0,WeatherDisplay:10.37,2013-09-14 13:43:00,
2013-09-14 09:48:00,50.5,47.1,30.19,West,273,3.5,3.5,88,0.00,OVC,,0.00,350.0,WeatherDisplay:10.37,2013-09-14 13:48:00,
2013-09-14 09:53:00,51.5,46.8,30.20,West,280,3.5,3.5,84,0.00,OVC,,0.00,364.0,WeatherDisplay:10.37,2013-09-14 13:53:00,
2013-09-14 09:58:00,52.2,46.5,30.20,WSW,254,3.5,3.5,81,0.00,OVC,,0.00,376.0,WeatherDisplay:10.37,2013-09-14 13:58:00,
2013-09-14 10:03:00,53.1,47.7,30.20,WSW,257,1.2,0.0,82,0.00,OVC,,0.00,390.0,WeatherDisplay:10.37,2013-09-14 14:03:00,
2013-09-14 10:08:00,53.9,47.9,30.20,West,281,4.0,4.0,80,0.00,OVC,,0.00,406.0,WeatherDisplay:10.37,2013-09-14 14:08:00,
2013-09-14 10:13:00,54.5,47.8,30.20,SW,219,3.5,3.5,78,0.00,OVC,,0.00,425.0,WeatherDisplay:10.37,2013-09-14 14:13:00,
2013-09-14 10:18:00,55.0,46.1,30.20,WNW,297,5.8,5.8,72,0.00,OVC,,0.00,446.0,WeatherDisplay:10.37,2013-09-14 14:18:00,
2013-09-14 10:23:00,55.5,47.0,30.20,SW,234,5.0,5.0,73,0.00,OVC,,0.00,469.0,WeatherDisplay:10.37,2013-09-14 14:23:00,
2013-09-14 10:28:00,55.9,46.6,30.20,West,263,3.5,3.5,71,0.00,OVC,,0.00,496.0,WeatherDisplay:10.37,2013-09-14 14:28:00,
2013-09-14 10:33:00,55.9,45.5,30.20,WSW,257,4.0,4.0,68,0.00,OVC,,0.00,515.0,WeatherDisplay:10.37,2013-09-14 14:33:00,
2013-09-14 10:38:00,56.1,46.8,30.20,SW,226,4.0,4.0,71,0.00,OVC,,0.00,531.0,WeatherDisplay:10.37,2013-09-14 14:38:00,
2013-09-14 10:43:00,56.5,46.4,30.20,SW,221,4.6,4.6,69,0.00,OVC,,0.00,543.0,WeatherDisplay:10.37,2013-09-14 14:43:00,
2013-09-14 10:48:00,56.9,46.1,30.20,SW,215,6.0,6.0,67,0.00,OVC,,0.00,555.0,WeatherDisplay:10.37,2013-09-14 14:48:00,
2013-09-14 10:53:00,57.1,45.8,30.20,WSW,252,4.6,4.6,66,0.00,OVC,,0.00,570.0,WeatherDisplay:10.37,2013-09-14 14:53:00,
2013-09-14 10:58:00,57.2,45.9,30.20,WSW,242,6.9,6.9,66,0.00,OVC,,0.00,582.0,WeatherDisplay:10.37,2013-09-14 14:58:00,
2013-09-14 11:03:00,57.5,45.8,30.20,NW,311,5.0,5.0,65,0.00,OVC,,0.00,596.0,WeatherDisplay:10.37,2013-09-14 15:03:00,
2013-09-14 11:08:00,57.9,45.8,30.20,WNW,290,5.0,5.0,64,0.00,OVC,,0.00,606.0,WeatherDisplay:10.37,2013-09-14 15:08:00,
2013-09-14 11:13:00,58.1,46.0,30.20,WSW,255,5.8,5.8,64,0.00,OVC,,0.00,619.0,WeatherDisplay:10.37,2013-09-14 15:13:00,
2013-09-14 11:18:00,58.2,44.8,30.20,WSW,247,5.0,5.0,61,0.00,OVC,,0.00,631.0,WeatherDisplay:10.37,2013-09-14 15:18:00,
2013-09-14 11:23:00,58.7,44.4,30.19,SW,229,6.9,6.9,59,0.00,OVC,,0.00,642.0,WeatherDisplay:10.37,2013-09-14 15:23:00,
2013-09-14 11:28:00,59.0,44.2,30.19,WSW,251,6.9,6.9,58,0.00,OVC,,0.00,652.0,WeatherDisplay:10.37,2013-09-14 15:28:00,
2013-09-14 11:33:00,58.8,44.9,30.19,West,277,6.9,6.9,60,0.00,OVC,,0.00,664.0,WeatherDisplay:10.37,2013-09-14 15:33:00,
2013-09-14 11:38:00,58.6,43.9,30.19,WSW,246,6.9,6.9,58,0.00,OVC,,0.00,673.0,WeatherDisplay:10.37,2013-09-14 15:38:00,
2013-09-14 11:43:00,59.0,45.6,30.19,SW,229,8.1,8.1,61,0.00,OVC,,0.00,684.0,WeatherDisplay:10.37,2013-09-14 15:43:00,
2013-09-14 11:48:00,59.4,44.2,30.19,West,265,9.2,9.2,57,0.00,OVC,,0.00,694.0,WeatherDisplay:10.37,2013-09-14 15:48:00,
2013-09-14 11:53:00,59.5,42.8,30.19,West,273,6.9,6.9,54,0.00,OVC,,0.00,712.0,WeatherDisplay:10.37,2013-09-14 15:53:00,
2013-09-14 11:58:00,59.5,42.3,30.19,NW,321,3.5,3.5,53,0.00,OVC,,0.00,726.0,WeatherDisplay:10.37,2013-09-14 15:58:00,
2013-09-14 12:03:00,59.8,43.6,30.18,WNW,294,7.0,7.0,55,0.00,OVC,,0.00,744.0,WeatherDisplay:10.37,2013-09-14 16:03:00,
2013-09-14 12:08:00,59.8,44.1,30.18,West,271,4.6,4.6,56,0.00,OVC,,0.00,673.0,WeatherDisplay:10.37,2013-09-14 16:08:00,
2013-09-14 12:13:00,60.1,44.3,30.18,West,273,5.8,5.8,56,0.00,OVC,,0.00,708.0,WeatherDisplay:10.37,2013-09-14 16:13:00,
2013-09-14 12:18:00,60.3,43.6,30.18,West,281,6.9,6.9,54,0.00,CLR,,0.00,707.0,WeatherDisplay:10.37,2013-09-14 16:18:00,
2013-09-14 12:23:00,60.5,45.2,30.18,NNW,344,2.3,2.3,57,0.00,CLR,,0.00,717.0,WeatherDisplay:10.37,2013-09-14 16:23:00,
2013-09-14 12:28:00,60.7,44.4,30.18,SW,235,8.1,8.1,55,0.00,CLR,,0.00,715.0,WeatherDisplay:10.37,2013-09-14 16:28:00,
2013-09-14 12:33:00,61.3,44.5,30.18,West,265,5.8,5.8,54,0.00,CLR,,0.00,754.0,WeatherDisplay:10.37,2013-09-14 16:33:00,
2013-09-14 12:38:00,61.5,46.1,30.18,WSW,238,3.5,3.5,57,0.00,CLR,,0.00,752.0,WeatherDisplay:10.37,2013-09-14 16:38:00,
2013-09-14 12:43:00,61.8,45.0,30.18,SSW,204,8.1,8.1,54,0.00,CLR,,0.00,747.0,WeatherDisplay:10.37,2013-09-14 16:43:00,
2013-09-14 12:48:00,61.9,45.1,30.17,NW,315,6.9,6.9,54,0.00,CLR,,0.00,777.0,WeatherDisplay:10.37,2013-09-14 16:48:00,
2013-09-14 12:53:00,61.9,44.1,30.17,WNW,300,3.5,3.5,52,0.00,CLR,,0.00,784.0,WeatherDisplay:10.37,2013-09-14 16:53:00,
2013-09-14 12:58:00,62.3,45.9,30.17,WSW,252,4.6,4.6,55,0.00,CLR,,0.00,772.0,WeatherDisplay:10.37,2013-09-14 16:58:00,
2013-09-14 13:03:00,62.4,44.0,30.17,NNW,337,3.5,3.5,51,0.00,CLR,,0.00,786.0,WeatherDisplay:10.37,2013-09-14 17:03:00,
2013-09-14 13:08:00,62.6,43.2,30.17,West,279,4.6,4.6,49,0.00,CLR,,0.00,793.0,WeatherDisplay:10.37,2013-09-14 17:08:00,
2013-09-14 13:13:00,62.4,44.0,30.17,WSW,258,3.5,3.5,51,0.00,CLR,,0.00,770.0,WeatherDisplay:10.37,2013-09-14 17:13:00,
2013-09-14 13:18:00,62.8,45.4,30.17,WSW,257,3.5,3.5,53,0.00,CLR,,0.00,775.0,WeatherDisplay:10.37,2013-09-14 17:18:00,
2013-09-14 13:23:00,63.1,44.2,30.16,NNW,330,5.0,5.0,50,0.00,CLR,,0.00,700.0,WeatherDisplay:10.37,2013-09-14 17:23:00,
2013-09-14 13:28:00,63.0,44.6,30.16,SSW,207,4.6,4.6,51,0.00,CLR,,0.00,812.0,WeatherDisplay:10.37,2013-09-14 17:28:00,
2013-09-14 13:33:00,63.2,42.1,30.16,West,271,1.2,0.0,46,0.00,CLR,,0.00,810.0,WeatherDisplay:10.37,2013-09-14 17:33:00,
2013-09-14 13:38:00,63.4,41.7,30.16,West,275,3.5,3.5,45,0.00,CLR,,0.00,807.0,WeatherDisplay:10.37,2013-09-14 17:38:00,
2013-09-14 13:43:00,63.6,44.1,30.16,WNW,284,6.9,6.9,49,0.00,CLR,,0.00,798.0,WeatherDisplay:10.37,2013-09-14 17:43:00,
2013-09-14 13:48:00,63.7,45.7,30.16,SW,223,5.8,5.8,52,0.00,CLR,,0.00,761.0,WeatherDisplay:10.37,2013-09-14 17:48:00,
2013-09-14 13:53:00,63.9,45.4,30.15,West,270,6.9,6.9,51,0.00,CLR,,0.00,807.0,WeatherDisplay:10.37,2013-09-14 17:53:00,
2013-09-14 13:58:00,64.1,45.6,30.15,SW,220,5.8,5.8,51,0.00,CLR,,0.00,805.0,WeatherDisplay:10.37,2013-09-14 17:58:00,
2013-09-14 14:03:00,64.2,44.6,30.15,NW,323,6.9,6.9,49,0.00,CLR,,0.00,793.0,WeatherDisplay:10.37,2013-09-14 18:03:00,
2013-09-14 14:08:00,64.2,44.1,30.14,SSW,209,8.0,8.0,48,0.00,CLR,,0.00,800.0,WeatherDisplay:10.37,2013-09-14 18:08:00,
2013-09-14 14:13:00,64.2,45.7,30.14,WNW,303,5.0,5.0,51,0.00,CLR,,0.00,796.0,WeatherDisplay:10.37,2013-09-14 18:13:00,
2013-09-14 14:18:00,64.2,45.2,30.14,WSW,252,4.0,4.0,50,0.00,CLR,,0.00,791.0,WeatherDisplay:10.37,2013-09-14 18:18:00,
2013-09-14 14:23:00,64.7,43.4,30.14,SW,220,9.2,9.2,46,0.00,CLR,,0.00,789.0,WeatherDisplay:10.37,2013-09-14 18:23:00,
2013-09-14 14:28:00,64.9,43.6,30.14,NW,325,3.5,3.5,46,0.00,CLR,,0.00,791.0,WeatherDisplay:10.37,2013-09-14 18:28:00,
2013-09-14 14:33:00,65.2,45.5,30.14,WSW,252,6.9,6.9,49,0.00,CLR,,0.00,788.0,WeatherDisplay:10.37,2013-09-14 18:33:00,
2013-09-14 14:38:00,65.6,44.8,30.14,WSW,242,6.9,6.9,47,0.00,CLR,,0.00,791.0,WeatherDisplay:10.37,2013-09-14 18:38:00,
2013-09-14 14:43:00,65.6,44.3,30.13,SW,234,4.0,4.0,46,0.00,CLR,,0.00,780.0,WeatherDisplay:10.37,2013-09-14 18:43:00,
2013-09-14 14:48:00,65.4,44.6,30.13,NW,309,5.8,5.8,47,0.00,CLR,,0.00,772.0,WeatherDisplay:10.37,2013-09-14 18:48:00,
2013-09-14 14:53:00,65.3,44.5,30.13,WSW,251,11.5,11.5,47,0.00,CLR,,0.00,775.0,WeatherDisplay:10.37,2013-09-14 18:53:00,
2013-09-14 14:58:00,65.4,44.6,30.13,West,264,4.6,4.6,47,0.00,CLR,,0.00,772.0,WeatherDisplay:10.37,2013-09-14 18:58:00,
2013-09-14 15:03:00,65.9,46.7,30.13,SSW,208,5.0,5.0,50,0.00,CLR,,0.00,756.0,WeatherDisplay:10.37,2013-09-14 19:03:00,
2013-09-14 15:08:00,66.4,45.5,30.12,NNW,348,3.5,3.5,47,0.00,CLR,,0.00,747.0,WeatherDisplay:10.37,2013-09-14 19:08:00,
2013-09-14 15:13:00,66.5,45.1,30.12,SW,231,11.0,11.0,46,0.00,CLR,,0.00,751.0,WeatherDisplay:10.37,2013-09-14 19:13:00,
2013-09-14 15:18:00,66.3,44.9,30.11,WSW,241,5.0,5.0,46,0.00,CLR,,0.00,721.0,WeatherDisplay:10.37,2013-09-14 19:18:00,
2013-09-14 15:23:00,66.6,46.3,30.11,SSW,204,7.0,7.0,48,0.00,CLR,,0.00,733.0,WeatherDisplay:10.37,2013-09-14 19:23:00,
2013-09-14 15:28:00,66.7,45.3,30.11,SSW,201,8.1,8.1,46,0.00,CLR,,0.00,689.0,WeatherDisplay:10.37,2013-09-14 19:28:00,
2013-09-14 15:33:00,66.8,46.5,30.12,SW,227,8.0,8.0,48,0.00,CLR,,0.00,744.0,WeatherDisplay:10.37,2013-09-14 19:33:00,
2013-09-14 15:38:00,67.0,46.7,30.11,WSW,240,2.3,2.3,48,0.00,CLR,,0.00,585.0,WeatherDisplay:10.37,2013-09-14 19:38:00,
2013-09-14 15:43:00,66.8,45.3,30.11,SW,221,8.1,8.1,46,0.00,CLR,,0.00,668.0,WeatherDisplay:10.37,2013-09-14 19:43:00,
2013-09-14 15:48:00,66.9,45.4,30.11,SW,236,3.5,3.5,46,0.00,CLR,,0.00,684.0,WeatherDisplay:10.37,2013-09-14 19:48:00,
2013-09-14 15:53:00,67.3,45.8,30.11,WSW,242,8.1,8.1,46,0.00,CLR,,0.00,671.0,WeatherDisplay:10.37,2013-09-14 19:53:00,
2013-09-14 15:58:00,67.4,45.9,30.11,SSW,196,5.8,5.8,46,0.00,CLR,,0.00,645.0,WeatherDisplay:10.37,2013-09-14 19:58:00,
2013-09-14 16:03:00,67.5,46.6,30.11,SW,230,8.1,8.1,47,0.00,CLR,,0.00,543.0,WeatherDisplay:10.37,2013-09-14 20:03:00,
2013-09-14 16:08:00,67.5,45.4,30.11,WSW,251,11.5,11.5,45,0.00,CLR,,0.00,670.0,WeatherDisplay:10.37,2013-09-14 20:08:00,
2013-09-14 16:13:00,67.3,44.0,30.11,SSW,195,9.0,9.0,43,0.00,CLR,,0.00,645.0,WeatherDisplay:10.37,2013-09-14 20:13:00,
2013-09-14 16:18:00,67.2,45.1,30.11,SW,218,10.4,10.4,45,0.00,FEW,,0.00,545.0,WeatherDisplay:10.37,2013-09-14 20:18:00,
2013-09-14 16:23:00,67.3,44.6,30.11,WSW,241,6.9,6.9,44,0.00,FEW,,0.00,559.0,WeatherDisplay:10.37,2013-09-14 20:23:00,
2013-09-14 16:28:00,67.6,45.5,30.10,SW,216,8.1,8.1,45,0.00,CLR,,0.00,605.0,WeatherDisplay:10.37,2013-09-14 20:28:00,
2013-09-14 16:33:00,68.1,44.7,30.10,WSW,247,9.0,9.0,43,0.00,FEW,,0.00,594.0,WeatherDisplay:10.37,2013-09-14 20:33:00,
2013-09-14 16:38:00,68.1,45.4,30.10,SW,225,10.4,10.4,44,0.00,CLR,,0.00,606.0,WeatherDisplay:10.37,2013-09-14 20:38:00,
2013-09-14 16:43:00,68.0,45.3,30.10,SW,232,8.1,8.1,44,0.00,FEW,,0.00,587.0,WeatherDisplay:10.37,2013-09-14 20:43:00,
2013-09-14 16:48:00,68.4,43.8,30.10,WSW,244,11.5,11.5,41,0.00,FEW,,0.00,575.0,WeatherDisplay:10.37,2013-09-14 20:48:00,
2013-09-14 16:53:00,68.2,45.4,30.09,WSW,243,11.0,11.0,44,0.00,FEW,,0.00,555.0,WeatherDisplay:10.37,2013-09-14 20:53:00,
2013-09-14 16:58:00,68.4,44.4,30.09,SW,234,10.4,10.4,42,0.00,SCT,,0.00,513.0,WeatherDisplay:10.37,2013-09-14 20:58:00,
2013-09-14 17:03:00,68.4,43.8,30.09,SSW,192,10.4,10.4,41,0.00,SCT,,0.00,531.0,WeatherDisplay:10.37,2013-09-14 21:03:00,
2013-09-14 17:08:00,68.2,42.9,30.09,West,265,10.4,10.4,40,0.00,SCT,,0.00,515.0,WeatherDisplay:10.37,2013-09-14 21:08:00,
2013-09-14 17:13:00,67.8,43.2,30.09,WSW,237,4.0,4.0,41,0.00,SCT,,0.00,420.0,WeatherDisplay:10.37,2013-09-14 21:13:00,
2013-09-14 17:18:00,68.1,43.5,30.09,SW,236,10.4,10.4,41,0.00,SCT,,0.00,503.0,WeatherDisplay:10.37,2013-09-14 21:18:00,
2013-09-14 17:23:00,68.6,42.6,30.09,SSW,194,6.9,6.9,39,0.00,SCT,,0.00,464.0,WeatherDisplay:10.37,2013-09-14 21:23:00,
2013-09-14 17:28:00,68.5,43.2,30.09,WSW,243,9.2,9.2,40,0.00,SCT,,0.00,448.0,WeatherDisplay:10.37,2013-09-14 21:28:00,
2013-09-14 17:33:00,68.5,42.6,30.09,WSW,238,6.0,6.0,39,0.00,BKN,,0.00,403.0,WeatherDisplay:10.37,2013-09-14 21:33:00,
2013-09-14 17:38:00,68.5,43.9,30.09,West,263,6.0,6.0,41,0.00,BKN,,0.00,397.0,WeatherDisplay:10.37,2013-09-14 21:38:00,
2013-09-14 17:43:00,68.1,42.2,30.09,SW,234,3.5,3.5,39,0.00,BKN,,0.00,366.0,WeatherDisplay:10.37,2013-09-14 21:43:00,
2013-09-14 17:48:00,67.9,42.7,30.09,SW,234,9.2,9.2,40,0.00,BKN,,0.00,288.0,WeatherDisplay:10.37,2013-09-14 21:48:00,
2013-09-14 17:53:00,67.5,42.3,30.08,SW,222,6.9,6.9,40,0.00,BKN,,0.00,250.0,WeatherDisplay:10.37,2013-09-14 21:53:00,
2013-09-14 17:58:00,67.3,42.8,30.08,WSW,249,4.6,4.6,41,0.00,BKN,,0.00,234.0,WeatherDisplay:10.37,2013-09-14 21:58:00,
2013-09-14 18:03:00,67.1,43.2,30.08,West,259,4.6,4.6,42,0.00,BKN,,0.00,283.0,WeatherDisplay:10.37,2013-09-14 22:03:00,
2013-09-14 18:08:00,67.3,44.6,30.08,WSW,241,6.9,6.9,44,0.00,BKN,,0.00,345.0,WeatherDisplay:10.37,2013-09-14 22:08:00,
2013-09-14 18:13:00,67.6,43.1,30.08,SW,222,8.1,8.1,41,0.00,BKN,,0.00,98.0,WeatherDisplay:10.37,2013-09-14 22:13:00,
2013-09-14 18:18:00,67.6,42.4,30.08,SW,225,8.1,8.1,40,0.00,BKN,,0.00,63.0,WeatherDisplay:10.37,2013-09-14 22:18:00,
2013-09-14 18:23:00,67.3,43.4,30.08,West,263,11.5,11.5,42,0.00,BKN,,0.00,65.0,WeatherDisplay:10.37,2013-09-14 22:23:00,
2013-09-14 18:29:00,66.6,42.8,30.08,WSW,258,5.8,5.8,42,0.00,BKN,,0.00,98.0,WeatherDisplay:10.37,2013-09-14 22:29:00,
2013-09-14 18:34:00,66.2,42.4,30.08,West,269,4.6,4.6,42,0.00,BKN,,0.00,77.0,WeatherDisplay:10.37,2013-09-14 22:34:00,
2013-09-14 18:39:00,65.9,42.8,30.08,WSW,244,4.6,4.6,43,0.00,CLR,,0.00,47.0,WeatherDisplay:10.37,2013-09-14 22:39:00,
2013-09-14 18:44:00,65.5,43.0,30.08,West,269,4.0,4.0,44,0.00,CLR,,0.00,42.0,WeatherDisplay:10.37,2013-09-14 22:44:00,
2013-09-14 18:49:00,65.2,42.1,30.08,SW,228,4.6,4.6,43,0.00,BKN,,0.00,47.0,WeatherDisplay:10.37,2013-09-14 22:49:00,
2013-09-14 18:50:00,65.1,42.7,30.08,WSW,238,1.0,5.0,44,0.00,CLR,,0.00,37.0,WeatherDisplay:10.37,2013-09-14 22:50:00,
2013-09-14 18:55:00,64.8,43.0,30.08,WSW,243,1.0,4.0,45,0.00,CLR,,0.00,30.0,WeatherDisplay:10.37,2013-09-14 22:55:00,
2013-09-14 19:00:00,64.5,43.8,30.08,SW,230,1.0,4.0,47,0.00,CLR,,0.00,32.0,WeatherDisplay:10.37,2013-09-14 23:00:00,
2013-09-14 19:05:00,64.3,44.2,30.08,SW,230,1.0,4.0,48,0.00,CLR,,0.00,23.0,WeatherDisplay:10.37,2013-09-14 23:05:00,
2013-09-14 19:10:00,64.0,44.4,30.09,WSW,240,1.0,3.0,49,0.00,CLR,,0.00,18.0,WeatherDisplay:10.37,2013-09-14 23:10:00,
2013-09-14 19:15:00,63.7,44.2,30.09,WSW,253,1.2,0.0,49,0.00,CLR,,0.00,14.0,WeatherDisplay:10.37,2013-09-14 23:15:00,
2013-09-14 19:20:00,63.3,44.3,30.09,WSW,253,0.0,0.0,50,0.00,CLR,,0.00,12.0,WeatherDisplay:10.37,2013-09-14 23:20:00,
2013-09-14 19:25:00,62.9,44.5,30.08,WSW,253,0.0,0.0,51,0.00,CLR,,0.00,11.0,WeatherDisplay:10.37,2013-09-14 23:25:00,
2013-09-14 19:30:00,62.5,46.1,30.08,WSW,253,0.0,0.0,55,0.00,CLR,,0.00,9.0,WeatherDisplay:10.37,2013-09-14 23:30:00,
2013-09-14 19:35:00,61.8,46.0,30.08,WSW,253,0.0,1.0,56,0.00,CLR,,0.00,7.0,WeatherDisplay:10.37,2013-09-14 23:35:00,
2013-09-14 19:40:00,61.2,45.8,30.08,WSW,253,0.0,1.0,57,0.00,CLR,,0.00,5.0,WeatherDisplay:10.37,2013-09-14 23:40:00,
2013-09-14 19:45:00,60.4,46.0,30.09,WSW,253,2.3,0.0,59,0.00,CLR,,0.00,0.0,WeatherDisplay:10.37,2013-09-14 23:45:00,
2013-09-14 19:50:00,59.8,45.9,30.09,WSW,253,0.0,2.0,60,0.00,CLR,,0.00,0.0,WeatherDisplay:10.37,2013-09-14 23:50:00,
2013-09-14 19:55:00,59.2,46.6,30.09,WSW,253,0.0,0.0,63,0.00,CLR,,0.00,0.0,WeatherDisplay:10.37,2013-09-14 23:55:00,
2013-09-14 20:00:00,58.7,47.8,30.09,WSW,253,0.0,0.0,67,0.00,CLR,,0.00,0.0,WeatherDisplay:10.37,2013-09-15 00:00:00,
2013-09-14 20:05:00,58.1,47.6,30.09,WSW,253,0.0,0.0,68,0.00,CLR,,0.00,0.0,WeatherDisplay:10.37,2013-09-15 00:05:00,
2013-09-14 20:10:00,57.4,46.9,30.09,WSW,253,0.0,0.0,68,0.00,CLR,,0.00,0.0,WeatherDisplay:10.37,2013-09-15 00:10:00,
2013-09-14 20:15:00,56.6,46.5,30.09,WSW,253,0.0,0.0,69,0.00,CLR,,0.00,0.0,WeatherDisplay:10.37,2013-09-15 00:15:00,
2013-09-14 20:20:00,55.9,47.0,30.09,WSW,248,3.0,3.0,72,0.00,CLR,,0.00,0.0,WeatherDisplay:10.37,2013-09-15 00:20:00,
2013-09-14 20:25:00,55.4,46.8,30.09,SW,227,1.0,4.0,73,0.00,CLR,,0.00,0.0,WeatherDisplay:10.37,2013-09-15 00:25:00,
2013-09-14 20:30:00,54.9,47.1,30.10,SSW,213,0.0,2.0,75,0.00,CLR,,0.00,0.0,WeatherDisplay:10.37,2013-09-15 00:30:00,
2013-09-14 20:35:00,54.4,47.0,30.10,SSW,213,0.0,0.0,76,0.00,CLR,,0.00,0.0,WeatherDisplay:10.37,2013-09-15 00:35:00,
2013-09-14 20:40:00,53.9,46.5,30.10,SSW,213,1.0,2.0,76,0.00,CLR,,0.00,0.0,WeatherDisplay:10.37,2013-09-15 00:40:00,
2013-09-14 20:45:00,53.4,46.7,30.10,SSW,213,0.0,2.0,78,0.00,CLR,,0.00,0.0,WeatherDisplay:10.37,2013-09-15 00:45:00,
2013-09-14 20:50:00,53.0,47.0,30.10,SSW,213,0.0,0.0,80,0.00,CLR,,0.00,0.0,WeatherDisplay:10.37,2013-09-15 00:50:00,
2013-09-14 20:55:00,52.6,46.9,30.10,SSW,213,0.0,2.0,81,0.00,CLR,,0.00,0.0,WeatherDisplay:10.37,2013-09-15 00:55:00,
2013-09-14 21:00:00,52.2,46.9,30.10,SSW,213,0.0,1.0,82,0.00,CLR,,0.00,0.0,WeatherDisplay:10.37,2013-09-15 01:00:00,
2013-09-14 21:05:00,51.9,46.9,30.10,SSW,213,0.0,0.0,83,0.00,CLR,,0.00,0.0,WeatherDisplay:10.37,2013-09-15 01:05:00,
2013-09-14 21:10:00,51.6,46.9,30.10,SSW,213,0.0,0.0,84,0.00,CLR,,0.00,0.0,WeatherDisplay:10.37,2013-09-15 01:10:00,
2013-09-14 21:15:00,51.3,46.9,30.10,SSW,213,1.2,1.2,85,0.00,CLR,,0.00,0.0,WeatherDisplay:10.37,2013-09-15 01:15:00,
2013-09-14 21:20:00,51.0,46.6,30.10,SSW,213,1.0,2.0,85,0.00,CLR,,0.00,0.0,WeatherDisplay:10.37,2013-09-15 01:20:00,
2013-09-14 21:25:00,50.7,46.7,30.10,SSW,212,1.0,2.0,86,0.00,CLR,,0.00,0.0,WeatherDisplay:10.37,2013-09-15 01:25:00,
2013-09-14 21:30:00,50.5,46.8,30.10,SSW,198,1.0,3.0,87,0.00,CLR,,0.00,0.0,WeatherDisplay:10.37,2013-09-15 01:30:00,
2013-09-14 21:35:00,50.3,46.9,30.10,South,187,2.0,4.0,88,0.00,CLR,,0.00,0.0,WeatherDisplay:10.37,2013-09-15 01:35:00,
2013-09-14 21:40:00,50.4,47.0,30.10,South,180,1.0,4.0,88,0.00,CLR,,0.00,0.0,WeatherDisplay:10.37,2013-09-15 01:40:00,
2013-09-14 21:45:00,51.0,47.3,30.09,South,180,3.0,4.0,87,0.00,CLR,,0.00,0.0,WeatherDisplay:10.37,2013-09-15 01:45:00,
2013-09-14 21:50:00,52.0,47.3,30.09,South,181,3.0,5.0,84,0.00,CLR,,0.00,0.0,WeatherDisplay:10.37,2013-09-15 01:50:00,
2013-09-14 21:55:00,53.1,47.4,30.09,SSW,196,4.6,4.6,81,0.00,CLR,,0.00,0.0,WeatherDisplay:10.37,2013-09-15 01:55:00,
2013-09-14 22:00:00,53.9,47.5,30.08,South,188,3.5,3.5,79,0.00,CLR,,0.00,0.0,WeatherDisplay:10.37,2013-09-15 02:00:00,
2013-09-14 22:05:00,54.4,47.3,30.09,South,191,3.5,3.5,77,0.00,CLR,,0.00,0.0,WeatherDisplay:10.37,2013-09-15 02:05:00,
2013-09-14 22:10:00,54.6,47.5,30.09,SSW,192,3.5,3.5,77,0.00,CLR,,0.00,0.0,WeatherDisplay:10.37,2013-09-15 02:10:00,
2013-09-14 22:15:00,54.8,47.4,30.09,South,188,3.5,3.5,76,0.00,CLR,,0.00,0.0,WeatherDisplay:10.37,2013-09-15 02:15:00,
2013-09-14 22:20:00,54.9,47.1,30.09,South,188,3.5,3.5,75,0.00,CLR,,0.00,0.0,WeatherDisplay:10.37,2013-09-15 02:20:00,
2013-09-14 22:25:00,54.8,47.4,30.09,South,188,3.5,3.5,76,0.00,CLR,,0.00,0.0,WeatherDisplay:10.37,2013-09-15 02:25:00,
2013-09-14 22:30:00,54.7,47.3,30.09,South,188,3.5,3.5,76,0.00,CLR,,0.00,0.0,WeatherDisplay:10.37,2013-09-15 02:30:00,
2013-09-14 22:35:00,54.4,47.0,30.08,South,186,2.3,2.3,76,0.00,CLR,,0.00,0.0,WeatherDisplay:10.37,2013-09-15 02:35:00,
2013-09-14 22:40:00,54.1,47.0,30.08,South,184,3.5,3.5,77,0.00,CLR,,0.00,0.0,WeatherDisplay:10.37,2013-09-15 02:40:00,
2013-09-14 22:45:00,54.0,46.6,30.09,South,183,3.5,3.5,76,0.00,CLR,,0.00,0.0,WeatherDisplay:10.37,2013-09-15 02:45:00,
2013-09-14 22:50:00,53.8,46.8,30.09,SSW,202,2.3,2.3,77,0.00,CLR,,0.00,0.0,WeatherDisplay:10.37,2013-09-15 02:50:00,
2013-09-14 22:55:00,53.5,46.8,30.09,SSW,202,3.5,3.5,78,0.00,CLR,,0.00,0.0,WeatherDisplay:10.37,2013-09-15 02:55:00,
2013-09-14 23:00:00,53.1,46.8,30.08,South,182,3.5,3.5,79,0.00,CLR,,0.00,0.0,WeatherDisplay:10.37,2013-09-15 03:00:00,
2013-09-14 23:05:00,52.7,46.7,30.08,South,185,3.5,3.5,80,0.00,CLR,,0.00,0.0,WeatherDisplay:10.37,2013-09-15 03:05:00,
2013-09-14 23:10:00,52.6,46.9,30.08,South,181,5.8,5.8,81,0.00,CLR,,0.00,0.0,WeatherDisplay:10.37,2013-09-15 03:10:00,
2013-09-14 23:15:00,52.8,46.8,30.08,South,189,3.5,3.5,80,0.00,CLR,,0.00,0.0,WeatherDisplay:10.37,2013-09-15 03:15:00,
2013-09-14 23:20:00,52.9,46.6,30.08,SSW,205,3.5,3.5,79,0.00,CLR,,0.00,0.0,WeatherDisplay:10.37,2013-09-15 03:20:00,
2013-09-14 23:25:00,53.0,46.7,30.08,South,188,3.5,3.5,79,0.00,CLR,,0.00,0.0,WeatherDisplay:10.37,2013-09-15 03:25:00,
2013-09-14 23:30:00,53.0,46.7,30.08,SSW,198,3.5,3.5,79,0.00,CLR,,0.00,0.0,WeatherDisplay:10.37,2013-09-15 03:30:00,
2013-09-14 23:35:00,52.9,46.9,30.08,SSW,193,3.5,3.5,80,0.00,CLR,,0.00,0.0,WeatherDisplay:10.37,2013-09-15 03:35:00,
2013-09-14 23:40:00,52.6,46.6,30.09,SSW,193,0.0,0.0,80,0.00,CLR,,0.00,0.0,WeatherDisplay:10.37,2013-09-15 03:40:00,
2013-09-14 23:45:00,52.2,46.5,30.09,SSW,193,2.3,2.3,81,0.00,CLR,,0.00,0.0,WeatherDisplay:10.37,2013-09-15 03:45:00,
2013-09-14 23:50:00,51.8,46.5,30.09,South,190,2.3,2.3,82,0.00,CLR,,0.00,0.0,WeatherDisplay:10.37,2013-09-15 03:50:00,
2013-09-14 23:55:00,51.3,46.0,30.09,South,190,2.3,2.3,82,0.00,CLR,,0.00,0.0,WeatherDisplay:10.37,2013-09-15 03:55:00,